Terug naar catalogus

STARLINK-37658

ActiefCommunicatieSSO
NORAD 69138·PAYLOAD·🇺🇸 United States

Gelanceerd May 20, 2026 vanaf Vandenberg Space Force Base

Loading…

Volgende Passages (komende 24 uur)

TLE

VersSource: CelesTrak SupGP

Epoch: Sep 14, 2026, 23:15 UTC

1 69138C 26110Q   26257.96923611  .00076216  00000+0  23664-2 0  2577
2 69138  97.2848  93.1218 0001723  93.9209 125.1490 15.33393806    10

Volg STARLINK-37658 in realtime met AllMySat

Download on the App Store